Hourly Weather Rugatino

Today, 20 April, Tuesday

Time Temperature Precipitation Wind Pressure Humidity
00:00 0°C° 0 mm 4 mps 755 mmHg 64%
01:00 0°C° 0 mm 4 mps 755 mmHg 66%
02:00 -1°C° 0 mm 4 mps 755 mmHg 68%
03:00 -1°C° 0 mm 4 mps 755 mmHg 69%
04:00 -1°C° 0 mm 4 mps 755 mmHg 70%
05:00 -1°C° 0 mm 4 mps 755 mmHg 71%
06:00 0°C° 0 mm 5 mps 754 mmHg 68%
07:00 +1°C° 0 mm 5 mps 754 mmHg 64%
08:00 +2°C° 0 mm 5 mps 754 mmHg 61%
09:00 +3°C° 0 mm 6 mps 754 mmHg 58%
10:00 +4°C° 0 mm 6 mps 754 mmHg 54%
11:00 +7°C° 0 mm 6 mps 753 mmHg 51%
12:00 +7°C° 0 mm 6 mps 753 mmHg 52%
13:00 +7°C° 0 mm 6 mps 753 mmHg 53%
14:00 +7°C° 0 mm 6 mps 752 mmHg 54%
15:00 +6°C° 0.4 mm 5 mps 752 mmHg 63%
16:00 +5°C° 0.4 mm 4 mps 752 mmHg 72%
17:00 +4°C° 0.4 mm 3 mps 751 mmHg 81%
18:00 +4°C° 0.1 mm 4 mps 751 mmHg 79%
19:00 +4°C° 0.1 mm 4 mps 750 mmHg 76%
20:00 +5°C° 0.1 mm 5 mps 749 mmHg 74%
21:00 +4°C° 0 mm 4 mps 749 mmHg 74%
22:00 +4°C° 0 mm 4 mps 748 mmHg 74%
23:00 +4°C° 0 mm 4 mps 747 mmHg 74%

Tomorrow, 21 April, Wednesday

Time Temperature Precipitation Wind Pressure Humidity
00:00 +3°C° 0.3 mm 4 mps 746 mmHg 78%
01:00 +1°C° 0.3 mm 4 mps 746 mmHg 83%
02:00 0°C° 0.3 mm 5 mps 745 mmHg 87%
03:00 0°C° 0.8 mm 5 mps 744 mmHg 90%
04:00 -1°C° 0.8 mm 5 mps 743 mmHg 94%
05:00 -2°C° 0.8 mm 5 mps 742 mmHg 97%
06:00 -2°C° 1.4 mm 5 mps 741 mmHg 97%
07:00 -3°C° 1.4 mm 6 mps 740 mmHg 97%
08:00 -2°C° 1.4 mm 6 mps 739 mmHg 98%
09:00 -2°C° 1.4 mm 6 mps 738 mmHg 98%
10:00 -1°C° 1.4 mm 5 mps 737 mmHg 98%
11:00 -1°C° 1.4 mm 5 mps 736 mmHg 99%
12:00 -1°C° 0.7 mm 4 mps 736 mmHg 99%
13:00 0°C° 0.7 mm 4 mps 735 mmHg 99%
14:00 +1°C° 0.7 mm 3 mps 735 mmHg 99%
15:00 0°C° 0.2 mm 4 mps 736 mmHg 99%
16:00 -1°C° 0.2 mm 4 mps 736 mmHg 98%
17:00 -1°C° 0.2 mm 5 mps 737 mmHg 98%
18:00 -1°C° 0.1 mm 5 mps 737 mmHg 98%
19:00 -1°C° 0.1 mm 5 mps 738 mmHg 98%
20:00 -1°C° 0.1 mm 4 mps 739 mmHg 98%
21:00 -1°C° 0.1 mm 4 mps 739 mmHg 98%
22:00 -1°C° 0.1 mm 4 mps 740 mmHg 98%
23:00 -1°C° 0.1 mm 4 mps 740 mmHg 98%

Day after tomorrow, 22 April, Thursday

Time Temperature Precipitation Wind Pressure Humidity
00:00 -1°C° 0.2 mm 4 mps 741 mmHg 98%
01:00 -1°C° 0.2 mm 4 mps 741 mmHg 98%
02:00 -1°C° 0.2 mm 4 mps 742 mmHg 98%
03:00 0°C° 0.2 mm 4 mps 742 mmHg 98%
04:00 +1°C° 0.2 mm 3 mps 743 mmHg 99%
05:00 +1°C° 0.2 mm 3 mps 743 mmHg 99%
06:00 +2°C° 0 mm 3 mps 744 mmHg 97%
07:00 +2°C° 0 mm 3 mps 744 mmHg 96%
08:00 +3°C° 0 mm 4 mps 744 mmHg 95%
09:00 +5°C° 0 mm 4 mps 745 mmHg 89%
10:00 +6°C° 0 mm 4 mps 745 mmHg 83%
11:00 +8°C° 0 mm 4 mps 745 mmHg 77%
12:00 +8°C° 0.1 mm 5 mps 745 mmHg 73%
13:00 +9°C° 0.1 mm 5 mps 745 mmHg 69%
14:00 +10°C° 0.1 mm 5 mps 746 mmHg 65%
15:00 +10°C° 0.1 mm 5 mps 746 mmHg 67%
16:00 +10°C° 0.1 mm 4 mps 746 mmHg 69%
17:00 +10°C° 0.1 mm 4 mps 746 mmHg 72%
18:00 +8°C° 0 mm 4 mps 746 mmHg 77%
19:00 +7°C° 0 mm 3 mps 747 mmHg 83%
20:00 +5°C° 0 mm 3 mps 747 mmHg 89%
21:00 +5°C° 0 mm 3 mps 747 mmHg 90%
22:00 +4°C° 0 mm 3 mps 747 mmHg 91%
23:00 +4°C° 0 mm 3 mps 747 mmHg 92%

23 April, Friday

Time Temperature Precipitation Wind Pressure Humidity
00:00 +4°C° 0 mm 3 mps 747 mmHg 92%
01:00 +3°C° 0 mm 3 mps 747 mmHg 92%
02:00 +3°C° 0 mm 3 mps 747 mmHg 91%
03:00 +3°C° 0 mm 4 mps 747 mmHg 90%
04:00 +3°C° 0 mm 4 mps 747 mmHg 89%
05:00 +3°C° 0 mm 4 mps 747 mmHg 88%
06:00 +5°C° 0 mm 5 mps 746 mmHg 84%
07:00 +7°C° 0 mm 5 mps 746 mmHg 80%
08:00 +8°C° 0 mm 6 mps 746 mmHg 76%
09:00 +10°C° 0 mm 6 mps 746 mmHg 73%
10:00 +11°C° 0 mm 6 mps 746 mmHg 70%
11:00 +12°C° 0 mm 7 mps 746 mmHg 67%
12:00 +13°C° 0.2 mm 6 mps 745 mmHg 69%
13:00 +13°C° 0.2 mm 6 mps 745 mmHg 70%
14:00 +13°C° 0.2 mm 5 mps 745 mmHg 71%
15:00 +13°C° 0.4 mm 5 mps 745 mmHg 74%
16:00 +13°C° 0.4 mm 4 mps 745 mmHg 76%
17:00 +12°C° 0.4 mm 4 mps 744 mmHg 78%
18:00 +12°C° 0.4 mm 4 mps 744 mmHg 80%
19:00 +11°C° 0.4 mm 4 mps 744 mmHg 82%
20:00 +9°C° 0.4 mm 5 mps 743 mmHg 84%
21:00 +8°C° 0.4 mm 4 mps 743 mmHg 88%
22:00 +9°C° 0.4 mm 3 mps 743 mmHg 91%
23:00 +8°C° 0.4 mm 2 mps 743 mmHg 95%

24 April, Saturday

Time Temperature Precipitation Wind Pressure Humidity
00:00 +7°C° 0.4 mm 2 mps 743 mmHg 95%
01:00 +7°C° 0.4 mm 2 mps 742 mmHg 95%
02:00 +7°C° 0.4 mm 2 mps 742 mmHg 96%
03:00 +6°C° 0.5 mm 2 mps 742 mmHg 96%
04:00 +4°C° 0.5 mm 3 mps 742 mmHg 96%
05:00 +3°C° 0.5 mm 3 mps 741 mmHg 96%
06:00 +3°C° 0.6 mm 3 mps 742 mmHg 96%
07:00 +2°C° 0.6 mm 3 mps 742 mmHg 96%
08:00 +2°C° 0.6 mm 3 mps 742 mmHg 96%
09:00 +3°C° 0.8 mm 2 mps 742 mmHg 96%
10:00 +3°C° 0.8 mm 2 mps 742 mmHg 97%
11:00 +3°C° 0.8 mm 2 mps 742 mmHg 97%
12:00 +3°C° 0.4 mm 2 mps 742 mmHg 95%
13:00 +4°C° 0.4 mm 2 mps 742 mmHg 94%
14:00 +4°C° 0.4 mm 2 mps 741 mmHg 93%
15:00 +4°C° 0.4 mm 2 mps 741 mmHg 94%
16:00 +4°C° 0.4 mm 2 mps 741 mmHg 94%
17:00 +4°C° 0.4 mm 2 mps 741 mmHg 94%
18:00 +4°C° 0.1 mm 2 mps 740 mmHg 95%
19:00 +4°C° 0.1 mm 2 mps 740 mmHg 95%
20:00 +3°C° 0.1 mm 2 mps 740 mmHg 96%
21:00 +2°C° 0.4 mm 3 mps 739 mmHg 96%
22:00 +2°C° 0.4 mm 3 mps 739 mmHg 96%
23:00 +2°C° 0.4 mm 3 mps 738 mmHg 97%

25 April, Sunday

Time Temperature Precipitation Wind Pressure Humidity
00:00 +1°C° 0.4 mm 4 mps 738 mmHg 97%
01:00 +1°C° 0.4 mm 4 mps 738 mmHg 96%
02:00 +1°C° 0.4 mm 5 mps 737 mmHg 96%
03:00 +1°C° 0.3 mm 5 mps 737 mmHg 96%
04:00 0°C° 0.3 mm 5 mps 737 mmHg 95%
05:00 -1°C° 0.3 mm 6 mps 737 mmHg 95%
06:00 -1°C° 0.5 mm 6 mps 737 mmHg 95%
07:00 -1°C° 0.5 mm 6 mps 737 mmHg 96%
08:00 -2°C° 0.5 mm 7 mps 736 mmHg 96%
09:00 -1°C° 0.7 mm 7 mps 737 mmHg 93%
10:00 -1°C° 0.7 mm 7 mps 737 mmHg 91%
11:00 0°C° 0.7 mm 7 mps 737 mmHg 88%
12:00 +2°C° 0.2 mm 7 mps 737 mmHg 83%
13:00 +2°C° 0.2 mm 7 mps 737 mmHg 78%
14:00 +3°C° 0.2 mm 7 mps 738 mmHg 72%
15:00 +3°C° 0.1 mm 7 mps 738 mmHg 73%
16:00 +2°C° 0.1 mm 6 mps 738 mmHg 73%
17:00 +2°C° 0.1 mm 6 mps 738 mmHg 74%
18:00 +1°C° 0 mm 6 mps 738 mmHg 75%
19:00 +1°C° 0 mm 5 mps 738 mmHg 76%
20:00 0°C° 0 mm 5 mps 738 mmHg 77%
21:00 0°C° 0 mm 5 mps 738 mmHg 78%
22:00 -1°C° 0 mm 5 mps 737 mmHg 78%
23:00 -1°C° 0 mm 5 mps 737 mmHg 78%
Show more